Regional Weather Roundup
Issued by NWS

Home | Current Version | Previous Version | Graphics & Text | Print | Product List | Glossary On
Versions: 1 2 3 4 5 6 7 8 9 10 11 12 13 14 15 16 17 18 19 20 21 22 23 24 25 26 27 28 29 30 31 32 33 34 35 36 37 38 39 40 41 42 43 44 45 46 47 48 49 50
000
ASUS43 KMPX 241501
RWRMN
WEATHER ROUNDUP FOR MINNESOTA
NATIONAL WEATHER SERVICE TWIN CITIES/CHANHASSEN MN
1000 AM CDT MON JUL 24 2017


NOTE: "FAIR" INDICATES FEW OR NO CLOUDS BELOW 12,000 FEET WITH NO
SIGNIFICANT WEATHER AND/OR OBSTRUCTIONS TO VISIBILITY. N/A MEANS
CURRENT SKY AND/OR WEATHER CONDITIONS ARE NOT AVAILABLE.

MNZ060>063-068>070-241600-
   Twin Cities Metro

CITY           SKY/WX    TMP DP  RH WIND       PRES   REMARKS
TWIN CITIES    MOSUNNY   69  58  67 SE6       30.07F
ST PAUL        SUNNY     68  59  73 CALM      30.08F
CRYSTAL        SUNNY     69  55  60 SE3       30.06F
BLAINE         MOSUNNY   70  61  73 SE5       30.07F
LAKEVILLE        N/A     66  61  82 E6        30.08S
EDEN PRAIRIE   SUNNY     70  60  70 SE6       30.06F
SOUTH ST PAUL  SUNNY     69  58  69 SE3       30.08S
LAKE ELMO      FAIR      68  59  73 CALM      30.09S
$$
MNZ001>005-007-008-013>017-022>024-027-028-241600-
   Northwest Minnesota

CITY           SKY/WX    TMP DP  RH WIND       PRES   REMARKS
BEMIDJI        SUNNY     69  53  56 S8        30.05F
HALLOCK        SUNNY     72  64  78 S14G20    29.95F
ROSEAU         SUNNY     72  64  78 S9        29.99F
WARROAD        SUNNY     70  64  83 S8        30.01F
CROOKSTON      SUNNY     72  64  78 S10       29.99F
FOSSTON        SUNNY     70  59  68 S10       30.03F
DETROIT LAKES  CLOUDY    70  59  68 S10       30.04S
MOORHEAD       MOSUNNY   70  61  73 S13       30.01S
PARK RAPIDS    SUNNY     68  58  70 SE9       30.05F
MAHNOMEN       FAIR      70  60  70 S6        30.03R
$$
MNZ006-009>011-018-025>026-241600-
   North Central Minnesota

CITY           SKY/WX    TMP DP  RH WIND       PRES   REMARKS
BAUDETTE       SUNNY     72  60  66 S13       30.02F
FLAG ISLAND    SUNNY     72  63  73 S7        29.99F HAZE
INTL FALLS     SUNNY     70  54  56 SW8       30.07S
WASKISH        CLOUDY    72  57  60 S6        30.05F
BIG FORK       SUNNY     70  55  60 SE6       30.07F
LONGVILLE      SUNNY     66  59  77 SE8       30.06F
GRAND RAPIDS   SUNNY     63  56  78 S10       30.10F
CRANE LAKE     SUNNY     68  54  60 S5        30.10S
ORR            SUNNY     68  52  56 S8        30.07S
COOK           SUNNY     68  54  60 S7        30.10S
WALKER         FAIR      67  56  67 S6        30.05F
$$
MNZ012-019>021-037-241600-
   Northeast Minnesota

CITY           SKY/WX    TMP DP  RH WIND       PRES   REMARKS
DULUTH         MOSUNNY   63  57  81 S6        30.11R
ELY            SUNNY     68  48  49 SW6       30.10S
HIBBING        SUNNY     65  55  70 S6        30.09F
EVELETH        SUNNY     68  52  55 S7        30.11S
DULUTH HARBOR  MOSUNNY   61  57  88 CALM      30.12S
TWO HARBORS    SUNNY     66  61  82 SW5       30.10R
GRAND MARAIS     N/A     56  55  97 SW10      30.09S
G MARAIS ARPRT SUNNY     66  48  52 S5        30.12S
$$
MNZ029>031-032-039>041-046>048-054>057-064-241600-
   West Central Minnesota

CITY           SKY/WX    TMP DP  RH WIND       PRES   REMARKS
FERGUS FALLS   CLOUDY    68  61  77 S10       30.01F
WHEATON        MOSUNNY   68  61  77 SE8       30.02F
MORRIS         MOSUNNY   70  61  73 SE12      30.02F
ALEXANDRIA     CLOUDY    68  60  75 S10       30.06F
ELBOW LAKE     FAIR      68  62  82 S12       30.03F
WADENA         CLOUDY    68  57  68 S9        30.04F
GLENWOOD       CLOUDY    68  61  77 SE8       30.06F
APPLETON       CLOUDY    70  61  73 SE8       30.02F
BENSON         PTSUNNY   70  61  73 S9        30.05F
ORTONVILLE     PTSUNNY   70  63  78 SE8       30.01F
MADISON        MOSUNNY   73  63  68 SE9       30.02F
WILLMAR        FAIR      70  61  73 SE7       30.07F
$$
MNZ033>034-036-042>043-049>051-058-059-241600-
   Central Minnesota

CITY           SKY/WX    TMP DP  RH WIND       PRES   REMARKS
ST CLOUD       MOSUNNY   66  60  81 SE6       30.07F
SAUK CENTRE    FAIR      64  60  88 S6        30.06F
PAYNESVILLE    MOSUNNY   67  58  74 SE7       30.07F
AITKIN         CLOUDY    61  57  88 SE7       30.07F
PINE RIVER     SUNNY     66  57  72 S8        30.09F
BRAINERD       PTSUNNY   64  58  80 S6        30.07F
STAPLES        MOSUNNY   66  57  72 S8        30.05F
LONG PRAIRIE   PTSUNNY   64  59  82 SE9       30.07F
LITTLE FALLS   CLOUDY    61  57  88 S6        30.08F
LITCHFIELD     SUNNY     70  61  73 SE3       30.07F
BUFFALO        SUNNY     68  57  67 CALM      30.08F
MAPLE LAKE     MOSUNNY   70  61  74 SE5       30.08F
HUTCHINSON     MOSUNNY   67  61  78 SE5       30.08F
$$
MNZ037-044-045-052-053-241600-
   East Central Minnesota

CITY           SKY/WX    TMP DP  RH WIND       PRES   REMARKS
PRINCETON      MOSUNNY   68  61  77 E5        30.08F
MORA           CLOUDY    59  59 100 CALM      30.11F
CAMBRIDGE      SUNNY     70  57  64 E5        30.07F
RUSH CITY      MOSUNNY   61  60  94 CALM      30.09F
MOOSE LAKE     MOSUNNY   63  55  77 CALM      30.09S
HINCKLEY       CLOUDY    57  57 100 SE3       30.10F
CLOQUET        MOSUNNY   59  57  94 E5        30.10F
MCGREGOR       CLOUDY    59  57  94 S5        30.09F
$$
MNZ071>073-080-081-089-090-097-098-241600-
   Southwest Minnesota

CITY           SKY/WX    TMP DP  RH WIND       PRES   REMARKS
MONTEVIDEO     CLOUDY    73  61  64 S7        30.04F
GRANITE FALLS  CLOUDY    69  61  76 SE8       30.06S
CANBY          SUNNY     73  63  70 CALM      30.03F
MARSHALL       SUNNY     71  62  73 SE8       30.05S
REDWOOD FALLS  SUNNY     68  60  75 SE9       30.05F
OLIVIA         SUNNY     70  61  73 SE7       30.05F
PIPESTONE      SUNNY     70  63  78 S9        30.06R
WINDOM         SUNNY     70  59  68 SE7       30.07S
WORTHINGTON    SUNNY     69  60  73 VRB6      30.07S
JACKSON        SUNNY     68  59  73 CALM      30.07S
SLAYTON        HVY RAIN  67  61  80 S7        30.07S
$$
MNZ065>067-074>077-082>085-091>093-241600-
   South Central Minnesota

CITY           SKY/WX    TMP DP  RH WIND       PRES   REMARKS
MANKATO        MOSUNNY   67  59  75 VRB6      30.08S
NEW ULM        MOSUNNY   66  57  72 S6        30.06F
ST JAMES       SUNNY     66  61  82 SE6       30.07F
FAIRMONT       MOSUNNY   67  60  78 S7        30.07S
GLENCOE        PTSUNNY   69  62  78 E3        30.07F
FARIBAULT      PTSUNNY   68  61  77 SE5       30.08S
OWATONNA       MOSUNNY   70  61  73 SE6       30.07F
WASECA         MOSUNNY   66  59  77 SE6       30.09S
ALBERT LEA     MOSUNNY   68  61  77 SE7       30.07F
$$
MNZ078>079-086>088-094>096-241600-
   Southeast Minnesota

CITY           SKY/WX    TMP DP  RH WIND       PRES   REMARKS
ROCHESTER      MOSUNNY   65  59  81 E3        30.09F
RED WING       SUNNY     70  55  60 SE7       30.07F
STANTON        PTSUNNY   69  59  70 SE3       30.07F
DODGE CENTER   MOSUNNY   64  57  77 CALM      30.08F
WINONA         CLOUDY    63  55  77 SE8       30.09S
AUSTIN         MOSUNNY   66  59  77 SE5       30.07F
PRESTON        PTSUNNY   63  56  78 CALM      30.10S
$$
ABBREVIATIONS USED IN REMARKS
   TC - TEMPERATURES IN CELSIUS
  WCI - WIND CHILL INDEX
   HX - HEAT INDEX
  VSB - VISIBILITY
$$




USA.gov is the U.S. government's official web portal to all federal, state and local government web resources and services.